Showing default

EUTE 8 WEST B, 40875

Orbit data source: Space-Track

EUTE 8 WEST B, 40875 is a payload satellite owned by EutelsatSA (FR) in GEO that was launched on Thu, 20 Aug 2015 UTC via an ARIANE 5ECA launch vehicle from the French Guiana (FRGUI). Payload-class satellites include a variety of spacecraft equipped with specific instruments for various scientific and technological missions. These include communications satellites like Starlink; space stations such as the ISS; scientific satellites like the Hubble; Earth observation satellites from companies like Planet Labs, Umbra, and HawkEye 360; GPS; miniature CubeSats for education and research; and military/defense satellites.

Not visible in the next 10 days
Identifier
40875, 2015-039B
Orbit
GEO
Country
Flag of UnknownUnknown / EUTE
Related business
Manufacturer
Thales Alenia
Mission
Operational Commercial Communications
Bus & Motor
SPACEBUS 4000C4, S400
Mass
5,782 kg wet, ~3,000 kg dry
Launch date (UTC)
2015-08-20 (10 years ago)
Launch vehicle
ARIANE 5ECA
Launch site
French Guiana (FRGUI)
Object type
Payload
Rocket body
Debris
Shape & HBR
Box + 2 Pan, 18.5 m
Radar Cross Section
31.794 m², Large (>1 m²)

Expand to show TLE details & history
Last TLE update: 18 hours ago

TLE from 18 hours ago
0 EUTE 8 WEST B
1 40875U 15039B   25340.42502304 -.00000058  00000-0  00000-0 0  9990
2 40875   0.0646 353.9756 0004121 263.3818 323.1281  1.00271555 37724
Epoch: 2025-12-06T10:12Z
TLE epoch observation values (Epoch: 2025-12-06T10:12:01.990Z)
Latitude
-0.06934°
Longitude
-8.01683°
Altitude
35,772.188 km
Speed
3.076 km/s
True Right ascension
14h 41m 46s
True Declination
0° 04' 09"
Sunlit
Object was in daylight at epoch
Visualization orbit readout
Latitude
Unknown
Longitude
Unknown
Altitude
Unknown
Speed
Unknown
Apparent Right ascension
Unknown
Apparent Declination
Unknown
Sunlit
N/A
Visualization observer readout
Local Sidereal Time
02:20:41
Azimuth
Unknown
Elevation
Unknown
Doppler factor
Unknown
Orbital elements
Apogee altitude
35,805.106 km
Perigee altitude
35,770.353 km
Semi-major axis
42,165.867 km
Eccentricity
0.00041
Inclination
0.0646°
RAAN
353.9756°
Arg. of periapsis
263.3818°
True anomaly
323.09975°
Mean anomaly
323.1281°
Eccentric anomaly
323.11393°
Mean motion
0.25067 °/min
Orbital period
1,436.15 mins
BSTAR
0
Loading maneuver chart data...
Computing Atmospheric mass density...
Loading historical data...
Loading historical data...
Loading historical data...
Loading historical data...
Loading historical data...
Loading historical data...
Loading historical data...
Other satellites on launch #39 in the year 2015 (2015-08-20 UTC)

Documentation

Showing up to 5 results
|